College Park, MD

6:23 AM EST on December 16, 2019 (GMT -0500)
College Park

Weather History for KCGS - October, 2019

Change the Weather History Date:

Tuesday, October 15, 2019

  Actual Average Record
Temperature  
Mean Temperature 56 °F -  
Max Temperature 70 °F 70 °F 88 °F (1975)
Min Temperature 41 °F 46 °F 32 °F (1979)
Degree Days  
Heating Degree Days 10    
Growing Degree Days 6 (Base 50)    
Moisture  
Dew Point 40 °F    
Average Humidity 63    
Maximum Humidity 94    
Minimum Humidity 27    
Precipitation  
Precipitation 0.00 in - - ()
Sea Level Pressure  
Sea Level Pressure 30.11 in    
Wind  
Wind Speed 1 mph (ESE)    
Max Wind Speed 6 mph    
Max Gust Speed -    
Visibility 10 miles    
Events      
Averages and records for this station are not official NWS values.
T = Trace of Precipitation, MM = Missing Value Source: NWS Daily Summary

Daily Weather History Graph

Daily Weather History Graph

Search for Another Location

Airport or City:

Astronomy

Oct. 15, 2019 Rise Set
Actual Time 7:16 AM EDT 6:29 PM EDT
Civil Twilight 6:50 AM EDT 6:56 PM EDT
Nautical Twilight 6:19 AM EDT 7:27 PM EDT
Astronomical Twilight 5:48 AM EDT 7:58 PM EDT
Moon 7:48 PM EDT (10/15) 8:44 AM EDT (10/15)
Length of Visible Light 12h 06m
Length of Day
11h 12m
Full, 97% of the Moon is Illuminated
Oct 15
Full
Oct 21
Last Quarter
Oct 27
New
Nov 4
First Quarter
Nov 12
Full

Hourly Weather History & Observations

Time (EDT) Temp. Dew Point Humidity Pressure Visibility Wind Dir Wind Speed Gust Speed Precip Events Conditions
12:03 AM 50.2 °F 43.5 °F 78% 30.07 in 10.0 mi Calm Calm - N/A   Clear
12:23 AM 50.0 °F 43.5 °F 78% 30.08 in 10.0 mi Calm Calm - N/A   Clear
12:43 AM 49.5 °F 43.2 °F 79% 30.09 in 10.0 mi Calm Calm - N/A   Clear
1:03 AM 48.4 °F 42.1 °F 79% 30.09 in 10.0 mi Calm Calm - N/A   Clear
1:23 AM 48.6 °F 43.3 °F 82% 30.09 in 10.0 mi Calm Calm - N/A   Clear
1:43 AM 47.5 °F 41.9 °F 81% 30.10 in 10.0 mi Calm Calm - N/A   Clear
2:03 AM 46.8 °F 41.2 °F 81% 30.10 in 10.0 mi Calm Calm - N/A   Clear
2:23 AM 46.6 °F 41.5 °F 83% 30.11 in 10.0 mi Calm Calm - N/A   Clear
2:43 AM 45.7 °F 40.6 °F 83% 30.11 in 10.0 mi Calm Calm - N/A   Clear
3:03 AM 45.9 °F 41.9 °F 86% 30.11 in 10.0 mi Calm Calm - N/A   Clear
3:23 AM 45.5 °F 41.7 °F 87% 30.12 in 10.0 mi Calm Calm - N/A   Clear
3:43 AM 45.1 °F 42.1 °F 89% 30.12 in 10.0 mi Calm Calm - N/A   Clear
4:03 AM 44.6 °F 42.6 °F 93% 30.11 in 10.0 mi Calm Calm - N/A   Clear
4:23 AM 43.7 °F 41.9 °F 93% 30.12 in 10.0 mi Calm Calm - N/A   Clear
4:43 AM 44.1 °F 42.4 °F 94% 30.12 in 10.0 mi Calm Calm - N/A   Clear
5:03 AM 43.7 °F 41.9 °F 93% 30.13 in 10.0 mi Calm Calm - N/A   Clear
5:23 AM 43.5 °F 41.7 °F 93% 30.13 in 10.0 mi Calm Calm - N/A   Clear
5:43 AM 43.0 °F 41.2 °F 93% 30.14 in 10.0 mi Calm Calm - N/A   Clear
6:03 AM 42.8 °F 41.0 °F 93% 30.15 in 10.0 mi Calm Calm - N/A   Clear
6:23 AM 42.3 °F 40.5 °F 93% 30.15 in 10.0 mi Calm Calm - N/A   Clear
6:43 AM 42.3 °F 40.5 °F 93% 30.16 in 10.0 mi Calm Calm - N/A   Clear
7:03 AM 41.9 °F 40.3 °F 94% 30.16 in 10.0 mi Calm Calm - N/A   Clear
7:23 AM 41.9 °F 40.1 °F 93% 30.16 in 10.0 mi Calm Calm - N/A   Clear
7:43 AM 41.9 °F 40.1 °F 93% 30.17 in 10.0 mi Calm Calm - N/A   Clear
8:03 AM 42.3 °F 40.5 °F 93% 30.17 in 10.0 mi Calm Calm - N/A   Clear
8:23 AM 45.5 °F 43.7 °F 93% 30.18 in 10.0 mi Calm Calm - N/A   Clear
8:43 AM 48.6 °F 46.8 °F 93% 30.18 in 10.0 mi Calm Calm - N/A   Clear
9:03 AM 50.7 °F 43.5 °F 76% 30.18 in 10.0 mi Calm Calm - N/A   Clear
9:23 AM 53.4 °F 39.7 °F 60% 30.19 in 10.0 mi Calm Calm - N/A   Clear
10:03 AM 59.2 °F 38.1 °F 46% 30.18 in 10.0 mi ENE 5.8 mph - N/A   Clear
10:23 AM 61.0 °F 38.7 °F 44% 30.18 in 10.0 mi NNE 3.5 mph - N/A   Clear
10:43 AM 61.3 °F 37.8 °F 42% 30.18 in 10.0 mi NNE 5.8 mph - N/A   Clear
11:03 AM 62.6 °F 37.6 °F 40% 30.17 in 10.0 mi Calm Calm - N/A   Clear
11:23 AM 64.2 °F 36.7 °F 36% 30.17 in 10.0 mi ESE 3.5 mph - N/A   Clear
11:43 AM 64.6 °F 36.5 °F 35% 30.16 in 10.0 mi North 3.5 mph - N/A   Clear
12:03 PM 66.2 °F 36.5 °F 33% 30.16 in 10.0 mi Calm Calm - N/A   Clear
12:23 PM 66.0 °F 36.0 °F 33% 30.16 in 10.0 mi Calm Calm - N/A   Clear
12:43 PM 67.5 °F 35.4 °F 31% 30.15 in 10.0 mi Calm Calm - N/A   Clear
1:03 PM 67.1 °F 35.4 °F 31% 30.15 in 10.0 mi Calm Calm - N/A   Clear
1:23 PM 67.8 °F 35.4 °F 30% 30.14 in 10.0 mi Calm Calm - N/A   Clear
1:43 PM 68.7 °F 35.1 °F 29% 30.13 in 10.0 mi Calm Calm - N/A   Clear
2:03 PM 68.9 °F 35.2 °F 29% 30.12 in 10.0 mi East 3.5 mph - N/A   Clear
2:23 PM 69.1 °F 35.1 °F 29% 30.11 in 10.0 mi SW 3.5 mph - N/A   Clear
2:43 PM 68.2 °F 34.7 °F 29% 30.10 in 10.0 mi Calm Calm - N/A   Clear
3:03 PM 69.8 °F 34.9 °F 28% 30.09 in 10.0 mi Calm Calm - N/A   Clear
3:23 PM 69.4 °F 34.3 °F 27% 30.08 in 10.0 mi SW 4.6 mph - N/A   Clear
3:43 PM 70.7 °F 34.9 °F 27% 30.08 in 10.0 mi WSW 3.5 mph - N/A   Clear
4:23 PM 70.5 °F 38.8 °F 32% 30.06 in 10.0 mi SE 4.6 mph - N/A   Clear
4:43 PM 70.2 °F 38.8 °F 32% 30.06 in 10.0 mi SE 5.8 mph - N/A   Clear
5:03 PM 68.9 °F 37.4 °F 32% 30.05 in 10.0 mi ESE 5.8 mph - N/A   Clear
5:43 PM 67.3 °F 36.9 °F 33% 30.06 in 10.0 mi ESE 4.6 mph - N/A   Clear
6:23 PM 64.2 °F 36.7 °F 36% 30.06 in 10.0 mi ESE 4.6 mph - N/A   Clear
6:43 PM 63.1 °F 36.1 °F 37% 30.06 in 10.0 mi Calm Calm - N/A   Clear
7:23 PM 57.6 °F 38.5 °F 49% 30.05 in 10.0 mi Calm Calm - N/A   Clear
7:43 PM 56.7 °F 40.3 °F 54% 30.05 in 10.0 mi Calm Calm - N/A   Clear
8:23 PM 54.7 °F 39.6 °F 57% 30.04 in 10.0 mi Calm Calm - N/A   Clear
8:43 PM 53.8 °F 40.3 °F 60% 30.04 in 10.0 mi Calm Calm - N/A   Clear
9:03 PM 54.0 °F 41.2 °F 62% 30.04 in 10.0 mi Calm Calm - N/A   Clear
9:23 PM 52.2 °F 42.3 °F 69% 30.04 in 10.0 mi Calm Calm - N/A   Clear
9:43 PM 52.0 °F 42.3 °F 69% 30.04 in 10.0 mi Calm Calm - N/A   Clear
10:03 PM 50.4 °F 40.6 °F 69% 30.04 in 10.0 mi Calm Calm - N/A   Clear
10:23 PM 50.9 °F 42.1 °F 72% 30.03 in 10.0 mi Calm Calm - N/A   Clear
10:43 PM 50.9 °F 42.3 °F 72% 30.03 in 10.0 mi Calm Calm - N/A   Clear
11:03 PM 49.8 °F 41.2 °F 72% 30.03 in 10.0 mi Calm Calm - N/A   Clear
11:23 PM 50.0 °F 42.3 °F 75% 30.02 in 10.0 mi Calm Calm - N/A   Clear
11:43 PM 49.6 °F 42.3 °F 76% 30.02 in 10.0 mi Calm Calm - N/A   Clear